GW1174 Weather Reports


time (UTC)temp
F
wind
direction
speed
knots
gust
knots
rain 1hr
in
rain 24hr
in
rain mn
in
humidity
%
barometer
mb
20260509015516 42 0.0 0.0 0.00 0.00 0.00 92 1018.4
20260509014516 42 0.0 0.9 0.00 0.00 0.00 92 1018.2
20260509013516 42 0.0 0.0 0.00 0.00 0.00 92 1018.2
20260509012516 42 0.0 0.0 0.00 0.00 0.00 92 1018.2
20260509011516 42 0.0 0.0 0.00 0.00 0.00 92 1018.2
20260509010516 42 0.0 0.0 0.00 0.00 0.00 92 1018.5
20260509005557 42 0.0 0.0 0.00 0.00 0.00 92 1018.4
20260509004516 42 0.0 1.7 0.00 0.00 0.00 91 1018.6
20260509003516 42 0.0 0.0 0.00 0.00 0.00 91 1018.2
20260509002519 43 0.0 0.9 0.00 0.00 0.00 91 1018.2
20260509001516 43 0.0 1.7 0.00 0.00 0.00 91 1018.2
20260509000516 43 0.0 1.7 0.00 0.00 0.00 91 1018.3
20260508235516 43 0.0 0.0 0.00 0.00 0.00 91 1018.2
20260508234516 44 0.0 0.0 0.00 0.00 0.00 91 1018.3
20260508233516 44 0.0 0.0 0.00 0.00 0.00 91 1018.5
20260508232516 44 0.0 0.0 0.00 0.00 0.00 91 1018.4
20260508231516 44 0.0 0.0 0.00 0.00 0.00 90 1018.5
20260508230539 44 0.0 0.0 0.00 0.00 0.00 90 1018.4
20260508225516 44 0.0 0.9 0.00 0.00 0.00 90 1018.4
20260508224536 44 0.0 0.0 0.00 0.00 0.00 90 1018.5
20260508223516 44 0.0 0.0 0.00 0.00 0.00 90 1018.5
20260508222516 45 0.0 0.0 0.00 0.00 0.00 89 1018.5
20260508221516 45 0.0 0.9 0.00 0.00 0.00 89 1018.6
20260508220516 45 0.0 0.9 0.00 0.00 0.00 89 1018.5
20260508215517 45 0.0 0.9 0.00 0.00 0.00 89 1018.5
20260508214517 46 0.0 1.7 0.00 0.00 0.00 89 1018.5
20260508213517 46 0 0.9 3.5 0.00 0.00 0.00 89 1018.3
20260508212517 46 45 0.9 3.5 0.00 0.00 0.00 89 1018.3
20260508211540 46 0 1.7 3.5 0.00 0.00 0.00 88 1018.2
20260508210517 47 23 1.7 3.5 0.00 0.01 0.00 88 1018.3
20260508205517 47 0 0.9 4.3 0.00 0.01 0.00 88 1018.1
20260508204517 47 23 1.7 7.0 0.00 0.01 0.00 87 1018.2
20260508203517 47 0 0.9 4.3 0.00 0.01 0.00 87 1018.1
20260508202517 47 23 1.7 4.3 0.00 0.01 0.00 86 1017.9
20260508201517 48 23 0.9 6.1 0.00 0.01 0.00 86 1018.0
20260508200537 48 0 0.9 4.3 0.00 0.01 0.00 85 1018.0
20260508195537 48 23 0.9 2.6 0.00 0.02 0.00 85 1018.0
20260508194517 49 0 0.9 3.5 0.00 0.02 0.00 84 1017.9
20260508193517 49 0 0.9 2.6 0.00 0.02 0.00 83 1017.9
20260508192557 49 0 0.9 3.5 0.00 0.02 0.00 82 1017.8
20260508191516 50 0.0 3.5 0.00 0.02 0.00 81 1017.7
20260508190516 51 0.0 0.0 0.00 0.02 0.00 80 1017.7
20260508185537 51 0.0 0.9 0.00 0.03 0.00 79 1017.4
20260508184517 52 0.0 1.7 0.00 0.03 0.00 78 1017.1
20260508183516 53 0.0 1.7 0.00 0.03 0.00 77 1017.1
20260508182536 54 0.0 2.6 0.00 0.03 0.00 76 1017.0
20260508181516 54 0.0 1.7 0.00 0.03 0.00 75 1016.9
20260508180516 55 0 0.9 3.5 0.00 0.03 0.00 73 1016.8
20260508175516 56 0 0.9 2.6 0.00 0.03 0.00 73 1016.8
20260508174516 56 23 0.9 2.6 0.00 0.03 0.00 72 1016.7
20260508173517 56 0 1.7 4.3 0.00 0.03 0.00 73 1016.6
20260508172517 56 23 0.9 2.6 0.00 0.03 0.00 72 1016.6
20260508171517 57 0.0 2.6 0.00 0.03 0.00 72 1016.7
20260508170516 57 23 0.9 3.5 0.00 0.03 0.00 72 1016.6
20260508165516 58 45 0.9 2.6 0.00 0.03 0.00 71 1016.7
20260508164516 58 0.0 3.5 0.00 0.03 0.00 70 1016.7
20260508163517 58 0.0 1.7 0.00 0.03 0.00 69 1016.6
20260508162516 59 0.0 1.7 0.00 0.03 0.00 69 1016.5
20260508161516 59 0.0 1.7 0.00 0.03 0.00 69 1016.6
20260508160516 59 23 0.9 1.7 0.00 0.03 0.00 68 1016.6
20260508155536 60 0.0 1.7 0.00 0.03 0.00 66 1016.5
20260508154516 62 23 0.9 2.6 0.00 0.03 0.00 67 1016.7
20260508153536 62 0.0 1.7 0.00 0.03 0.00 64 1016.8
20260508152517 61 0 0.9 3.5 0.00 0.03 0.00 64 1016.9
20260508151516 61 0.0 1.7 0.00 0.03 0.00 65 1016.8
20260508150536 62 0.0 4.3 0.00 0.03 0.00 66 1017.0
20260508145556 61 0 0.9 4.3 0.00 0.03 0.00 68 1017.1
20260508144516 60 45 0.9 3.5 0.00 0.03 0.00 68 1017.0
20260508143516 61 0 0.9 3.5 0.00 0.03 0.00 62 1017.1
20260508142516 61 0 0.9 4.3 0.00 0.03 0.00 63 1017.2
20260508141516 62 158 0.9 2.6 0.00 0.04 0.00 61 1017.3
20260508140516 59 0 1.7 4.3 0.00 0.04 0.00 64 1017.2
20260508135516 61 45 0.9 2.6 0.00 0.05 0.00 67 1017.3
20260508134516 58 23 0.9 2.6 0.00 0.05 0.00 70 1017.3
20260508133536 59 0.0 1.7 0.00 0.05 0.00 69 1017.4
20260508132516 59 0 0.9 4.3 0.00 0.05 0.00 65 1017.4
20260508131516 60 68 0.9 3.5 0.00 0.05 0.00 66 1017.4
20260508130516 61 45 0.9 3.5 0.00 0.05 0.00 69 1017.6
20260508125516 60 338 0.9 2.6 0.00 0.05 0.00 73 1017.8
20260508124516 60 0.0 2.6 0.00 0.05 0.00 69 1017.9
20260508123516 57 0.0 1.7 0.00 0.05 0.00 69 1017.7
20260508122515 57 0.0 2.6 0.00 0.05 0.00 71 1017.7
20260508121516 56 0.0 0.9 0.00 0.05 0.00 71 1017.8
20260508120516 56 0.0 0.9 0.00 0.05 0.00 72 1017.6
20260508115515 55 45 0.9 2.6 0.00 0.05 0.00 69 1017.7
20260508114515 56 0.0 1.7 0.00 0.05 0.00 72 1017.6
20260508113515 56 23 0.9 3.5 0.00 0.05 0.00 73 1017.7
20260508112517 57 0 0.9 1.7 0.00 0.05 0.00 74 1017.7
20260508111516 56 0.0 0.9 0.00 0.05 0.00 77 1017.6
20260508110517 55 0.0 0.9 0.00 0.05 0.00 78 1017.6
20260508105517 55 0.0 2.6 0.00 0.05 0.00 77 1017.6
20260508104518 55 0.0 0.9 0.00 0.05 0.00 77 1017.6
20260508103517 55 0.0 2.6 0.00 0.05 0.00 78 1017.5
20260508102517 56 23 0.9 2.6 0.00 0.05 0.00 78 1017.6
20260508101518 56 23 0.9 2.6 0.00 0.05 0.00 76 1017.7
20260508100518 57 23 0.9 3.5 0.00 0.05 0.00 76 1017.7
20260508095517 57 0.0 2.6 0.00 0.05 0.00 81 1017.7
20260508094517 54 45 0.9 3.5 0.00 0.05 0.00 79 1017.6
20260508093517 55 0.0 1.7 0.00 0.05 0.00 78 1017.9
20260508092617 55 45 0.9 3.5 0.00 0.05 0.00 80 1018.0
20260508091517 55 0 0.9 3.5 0.00 0.05 0.00 83 1018.0
20260508090517 54 0.0 0.9 0.00 0.05 0.00 87 1018.0
20260508085517 53 0.0 2.6 0.00 0.05 0.00 88 1017.9
20260508084517 52 0.0 2.6 0.00 0.06 0.00 89 1018.0
20260508083517 50 0.0 0.0 0.00 0.06 0.00 89 1018.0
20260508082517 50 0.0 1.7 0.00 0.06 0.00 90 1018.1
20260508081537 50 0.0 0.9 0.00 0.06 0.00 90 1018.0
20260508080517 49 90 0.9 2.6 0.00 0.06 0.00 91 1018.0
20260508075537 49 0.0 0.0 0.00 0.06 0.00 91 1017.9
20260508074537 49 90 0.9 2.6 0.00 0.06 0.00 92 1017.8
20260508073517 49 45 0.9 3.5 0.00 0.06 0.00 92 1017.8
20260508072517 49 0.0 1.7 0.00 0.06 0.00 93 1017.6
20260508071517 48 0.0 0.9 0.00 0.06 0.00 93 1017.5
20260508070517 48 0.0 0.0 0.00 0.06 0.00 93 1017.3
20260508065517 48 0 0.9 2.6 0.00 0.06 0.00 93 1017.3
20260508064517 48 0.0 0.9 0.00 0.06 0.00 93 1017.2
20260508063517 47 0.0 0.0 0.00 0.06 0.00 94 1017.1
20260508062517 47 0.0 1.7 0.00 0.06 0.00 94 1016.9
20260508061517 47 0.0 0.0 0.00 0.06 0.00 94 1016.8
20260508060517 47 0.0 0.9 0.00 0.06 0.00 94 1016.8
20260508055517 47 0.0 0.0 0.00 0.06 0.00 94 1016.7
20260508054537 47 0.0 0.9 0.00 0.06 0.00 94 1016.5
20260508053537 47 0.0 0.9 0.00 0.06 0.00 94 1016.3
20260508052517 46 0.0 0.9 0.00 0.06 0.00 94 1016.2
20260508051537 46 0.0 0.9 0.00 0.06 0.00 94 1016.2
20260508050517 46 0.0 0.9 0.00 0.06 0.00 94 1016.2
20260508045516 46 0.0 0.0 0.00 0.06 0.00 94 1016.1
20260508044517 46 0.0 0.9 0.00 0.06 0.00 94 1016.1
20260508043517 45 0.0 0.0 0.00 0.06 0.00 94 1016.1
20260508042516 45 0.0 0.0 0.00 0.06 0.00 94 1016.0
20260508041516 45 0.0 0.0 0.00 0.06 0.00 94 1016.0
20260508040516 45 0.0 0.9 0.00 0.06 0.00 94 1015.9
20260508035517 45 0.0 1.7 0.00 0.06 0.00 94 1015.9
20260508034537 45 23 0.9 2.6 0.00 0.06 0.00 94 1015.9
20260508033517 45 23 0.9 2.6 0.00 0.06 0.00 94 1015.9
20260508032536 45 0 0.9 3.5 0.00 0.06 0.00 94 1015.8
20260508031516 46 0.0 1.7 0.00 0.06 0.00 94 1015.8
20260508030517 46 0.0 0.9 0.00 0.06 0.00 94 1015.9
20260508025517 46 0.0 0.9 0.00 0.06 0.00 94 1015.7
20260508024537 46 0.0 0.9 0.00 0.06 0.00 94 1015.7
20260508023516 46 0.0 0.0 0.00 0.06 0.00 94 1015.7
20260508022516 46 0.0 0.0 0.00 0.06 0.00 94 1015.7
20260508021517 46 0.0 0.0 0.00 0.06 0.00 94 1015.7
20260508020516 46 0.0 0.0 0.00 0.06 0.00 94 1015.8